Location: Caracas
(10.5033°N, 66.8422°W)
Time: 07:11:41
(UTC-04:00)

N. Korean satellite - Pass Details

Date: 14 November 2017
Orbit: 460 x 514 km, 97.2° (Epoch: 23 November)

Event Time Altitude Azimuth Distance (km) Brightness Sun altitude
Rises 19:38:42 0° 206° (SSW) 2,474 10.8 -23.7°
Reaches altitude 10° 19:42:02 10° 242° (WSW) 1,598 10.2 -24.5°
Maximum altitude 19:43:08 11° 261° (W) 1,522 10.1 -24.8°
Drops below altitude 10° 19:44:14 10° 280° (W) 1,598 10.0 -25.0°
Sets 19:47:35 0° 316° (NW) 2,475 10.5 -25.8°
